Regional Weather Roundup
Issued by NWS

Home | Current Version | Previous Version | Text Only | Print | Product List | Glossary Off
Versions: 1 2 3 4 5 6 7 8 9 10 11 12 13 14 15 16 17 18 19 20 21 22 23 24 25 26 27 28 29 30 31 32 33 34 35 36 37 38 39 40 41 42 43 44 45 46 47 48 49 50

000
ASUS43 KDTX 251410
RWRMI
MICHIGAN HOURLY REGIONAL WEATHER ROUNDUP
NATIONAL WEATHER SERVICE DETROIT/PONTIAC MI
ISSUED BY NATIONAL WEATHER SERVICE GRAND RAPIDS MI
1000 AM EDT TUE JUL 25 2017

NOTE: "FAIR" INDICATES FEW OR NO CLOUDS BELOW 12,000 FEET WITH NO
SIGNIFICANT WEATHER AND/OR OBSTRUCTION TO VISIBILITY.

MIZ047>049-052>055-059>063-066>070-074>076-081>083-251500-
SOUTHEAST LOWER MICHIGAN

CITY           SKY/WX    TMP DP  RH WIND       PRES   REMARKS
ADRIAN         SUNNY     68  53  58 E8        30.24S
ALMA           SUNNY     70  51  51 CALM      30.24R
ANN ARBOR      SUNNY     70  53  54 NE7       30.23S
BAD AXE        SUNNY     68  53  58 MISG      30.24
DETROIT CITY   SUNNY     70  55  59 NE7       30.22S
DETROIT        MOSUNNY   70  55  59 VRB6      30.23R
FLINT          SUNNY     69  52  54 E3        30.24R
GROSSE ILE     SUNNY     69  56  63 NE5       30.21S
HILLSDALE      SUNNY     68  46  45 NE8       30.23S
HOWELL         SUNNY     67  53  61 NE3       30.24S

CITY           SKY/WX    TMP DP  RH WIND       PRES   REMARKS
JACKSON        SUNNY     69  48  47 E7        30.24S
LANSING        SUNNY     69  49  48 E5        30.25R
MASON          SUNNY     67  55  65 CALM      30.24S
MONROE         SUNNY     67  57  69 N3        30.22S
MT. CLEMENS    MOSUNNY   70  57  63 N9        30.21R
PONTIAC        MOSUNNY   69  50  50 NE12      30.22S
PORT HOPE        N/A     69  57  65 NE6       30.22S
PORT HURON     SUNNY     70  55  60 N9        30.22R
TRI CITIES     SUNNY     70  59  68 CALM      30.24S
YPSILANTI      SUNNY     71  55  56 NE5       30.24R
$$
MIZ043>046-050>051-056>058-064>065-071>073-077>080-251500-
SOUTHWEST LOWER MICHIGAN

CITY           SKY/WX    TMP DP  RH WIND       PRES   REMARKS
BATTLE CREEK   SUNNY     70  50  49 S5        30.25R
BENTON HARBOR  SUNNY     70  55  59 S7        30.23R
BIG RAPIDS     SUNNY     69  56  62 S3        30.24R
COLDWATER      SUNNY     68  51  55 SE5       30.25R
GRAND RAPIDS   PTSUNNY   71  55  56 S7        30.24R
KALAMAZOO      SUNNY     71  50  47 S5        30.24R
MARSHALL       SUNNY     68  51  54 CALM      30.24R
MOUNT PLEASANT SUNNY     72  53  51 S3        30.23R
MUSKEGON       MOSUNNY   73  56  54 S10       30.23R
STURGIS        SUNNY     68  52  56 SE6       30.24R
$$
MIZ016>042-251500-
NORTHERN LOWER MICHIGAN

CITY           SKY/WX    TMP DP  RH WIND       PRES   REMARKS
ALPENA         SUNNY     70  56  61 CALM      30.23F
BEAVER ISLAND  SUNNY     71  57  60 SW6       30.21F
BELLAIRE       SUNNY     69  53  56 CALM      30.22S
CADILLAC       SUNNY     71  52  49 SW9       30.23R
CHARLEVOIX     SUNNY     68  57  66 CALM      30.24S
GAYLORD        SUNNY     69  52  54 VRB5      30.24S
HOUGHTON LAKE  SUNNY     67  57  70 CALM      30.24F
MANISTEE       MOSUNNY   70  58  65 VRB6      30.21R
OSCODA         SUNNY     69  52  54 N3        30.23S
PELLSTON       SUNNY     68  54  60 E3        30.22F
TRAVERSE CITY  MOSUNNY   70  56  61 CALM      30.20S
LUDINGTON      MOSUNNY   69  59  72 CALM      30.21R
$$
MIZ007>008-015-251500-
EASTERN UPPER MICHIGAN

CITY           SKY/WX    TMP DP  RH WIND       PRES   REMARKS
MACKINAC ISLAN SUNNY     68  53  58 CALM      30.22F
NEWBERRY       SUNNY     66  57  74 S6        30.21S
S. S. MARIE    SUNNY     67  56  67 VRB3      30.21S
$$
MIZ004>006-011>014-085-251500-
CENTRAL UPPER MICHIGAN

CITY           SKY/WX    TMP DP  RH WIND       PRES   REMARKS
MANISTIQUE     SUNNY     68  61  80 SE7       30.20S
ESCANABA       MOSUNNY   69  57  65 SE8       30.18F
MENOMINEE      MOSUNNY   67  58  72 S6        30.20S
SAWYER-GWINN   SUNNY     66  55  68 S12       30.19S
$$
MIZ001>003-009>011-084-251500-
WESTERN UPPER MICHIGAN

CITY           SKY/WX    TMP DP  RH WIND       PRES   REMARKS
IRON MOUNTAIN  MOSUNNY   68  54  60 S6        30.17F
HOUGHTON       SUNNY     68  57  68 S8        30.12F
COPPER HARBOR    N/A     69  56  62 SW7       30.11F
IRONWOOD       CLOUDY    67  58  72 S7        30.10F
$$

ABBREVIATIONS USED IN REMARKS
   TC - TEMPERATURE IN CELSIUS
  WCI - WIND CHILL INDEX
   HX - HEAT INDEX
  VSB - VISIBILITY





USA.gov is the U.S. government's official web portal to all federal, state and local government web resources and services.